EW6089 Weather Reports


time (UTC)temp
C
wind
direction
speed
KPH
gust
KPH
rain 1hr
cm
rain 24hr
cm
rain mn
cm
humidity
%
barometer
mb
20260904225017 20 0.0 4.8 0.00 0.05 0.00 64 1013.7
20260904224017 20 158 1.6 4.8 0.00 0.05 0.00 61 1013.5
20260904223017 21 0.0 3.2 0.00 0.05 0.00 59 1013.4
20260904222016 21 0.0 1.6 0.00 0.05 0.00 55 1013.4
20260904221018 21 0.0 3.2 0.00 0.05 0.00 54 1013.3
20260904220037 21 0.0 3.2 0.00 0.05 0.00 55 1013.4
20260904215038 21 45 3.2 6.4 0.00 0.05 0.00 52 1013.3
20260904214015 21 158 1.6 6.4 0.00 0.05 0.00 54 1013.2
20260904213015 21 68 1.6 8.0 0.00 0.05 0.00 57 1013.4
20260904212036 21 158 3.2 9.7 0.00 0.05 0.00 58 1013.3
20260904211016 21 0.0 3.2 0.00 0.05 0.00 60 1013.3
20260904210037 20 0.0 1.6 0.00 0.05 0.00 60 1013.3
20260904205015 20 0.0 4.8 0.00 0.05 0.00 61 1013.3
20260904204037 20 0.0 4.8 0.00 0.05 0.00 62 1013.4
20260904203016 19 0.0 3.2 0.00 0.05 0.00 64 1013.4
20260904202015 18 0.0 1.6 0.00 0.05 0.00 69 1013.3
20260904201016 18 0.0 1.6 0.00 0.05 0.00 69 1013.4
20260904200038 17 0.0 0.0 0.00 0.05 0.00 71 1013.5
20260904195018 17 0.0 1.6 0.00 0.05 0.00 70 1013.5
20260904194018 18 158 1.6 4.8 0.00 0.05 0.00 71 1013.7
20260904193038 17 0.0 1.6 0.00 0.05 0.00 72 1013.7
20260904192018 17 0.0 3.2 0.00 0.05 0.00 71 1013.7
20260904191018 17 0.0 3.2 0.00 0.05 0.00 73 1013.7
20260904190017 17 0.0 4.8 0.00 0.05 0.00 76 1013.7
20260904185019 16 0.0 3.2 0.00 0.05 0.00 77 1013.8
20260904184038 16 0.0 0.0 0.00 0.05 0.00 79 1013.8
20260904183017 16 0.0 1.6 0.00 0.05 0.00 79 1013.8
20260904182018 16 0.0 1.6 0.00 0.05 0.00 77 1013.7
20260904181019 16 0.0 3.2 0.00 0.05 0.00 77 1013.7
20260904180019 16 0.0 4.8 0.00 0.05 0.00 81 1013.6
20260904175019 15 0.0 3.2 0.00 0.05 0.00 83 1013.7
20260904174019 15 0.0 4.8 0.00 0.05 0.00 85 1013.8
20260904173018 15 0.0 1.6 0.00 0.05 0.00 85 1013.7
20260904172017 15 0.0 0.0 0.00 0.05 0.00 87 1013.7
20260904171017 14 0.0 1.6 0.00 0.05 0.00 87 1013.8
20260904170017 14 0.0 1.6 0.00 0.05 0.00 88 1013.8
20260904165017 13 0.0 0.0 0.00 0.05 0.00 90 1013.8
20260904164037 13 0.0 0.0 0.00 0.05 0.00 91 1013.8
20260904163038 13 0.0 1.6 0.00 0.05 0.00 93 1013.9
20260904162018 12 0.0 1.6 0.00 0.05 0.00 93 1013.9
20260904161017 12 0.0 0.0 0.00 0.05 0.00 95 1013.8
20260904160017 12 0.0 0.0 0.00 0.05 0.00 96 1013.7
20260904155017 12 0.0 0.0 0.00 0.05 0.00 96 1013.8
20260904154017 11 0.0 0.0 0.00 0.05 0.00 96 1013.8
20260904153017 11 0.0 0.0 0.00 0.05 0.00 96 1013.6
20260904152017 11 0.0 0.0 0.00 0.05 0.00 97 1013.4
20260904151017 11 0.0 0.0 0.00 0.05 0.00 97 1013.4
20260904150017 11 0.0 0.0 0.00 0.05 0.00 97 1013.2
20260904145017 11 0.0 0.0 0.00 0.05 0.00 97 1013.2
20260904144018 11 0.0 0.0 0.00 0.05 0.00 97 1013.1
20260904143018 10 0.0 0.0 0.00 0.05 0.00 97 1012.9
20260904142017 10 0.0 0.0 0.00 0.05 0.00 97 1012.8
20260904141017 10 0.0 0.0 0.00 0.05 0.00 97 1012.8
20260904140017 10 0.0 0.0 0.00 0.05 0.00 97 1012.7
20260904135017 10 0.0 0.0 0.00 0.05 0.00 97 1012.7
20260904134017 10 0.0 0.0 0.00 0.05 0.00 97 1012.7
20260904133017 10 0.0 0.0 0.00 0.05 0.00 97 1012.6
20260904132017 10 0.0 0.0 0.00 0.05 0.00 97 1012.5
20260904131017 10 0.0 0.0 0.00 0.05 0.00 97 1012.4
20260904130017 10 0.0 0.0 0.00 0.05 0.00 97 1012.2
20260904125016 10 0.0 0.0 0.00 0.05 0.00 97 1012.1
20260904124017 10 0.0 0.0 0.00 0.05 0.00 96 1012.1
20260904123017 10 0.0 0.0 0.00 0.05 0.00 96 1012.1
20260904122017 10 0.0 0.0 0.00 0.05 0.00 96 1011.9
20260904121017 10 0.0 0.0 0.00 0.05 0.00 96 1012.0
20260904120018 10 0.0 0.0 0.00 0.05 0.00 96 1011.9
20260904115022 10 0.0 0.0 0.00 0.05 0.00 96 1011.8
20260904114017 10 0.0 0.0 0.00 0.05 0.00 96 1011.6
20260904113037 10 0.0 0.0 0.00 0.05 0.00 96 1011.6
20260904112017 10 0.0 0.0 0.00 0.05 0.00 96 1011.6
20260904111018 11 0.0 0.0 0.00 0.05 0.00 96 1011.4
20260904110017 11 0.0 0.0 0.00 0.05 0.00 96 1011.4
20260904105017 11 0.0 0.0 0.00 0.05 0.00 96 1011.4
20260904104016 11 0.0 0.0 0.00 0.05 0.00 96 1011.5
20260904103017 11 0.0 0.0 0.00 0.05 0.00 96 1011.5
20260904102017 11 0.0 0.0 0.00 0.05 0.00 96 1011.4
20260904101017 11 0.0 0.0 0.00 0.05 0.00 96 1011.3
20260904100037 11 0.0 0.0 0.00 0.05 0.00 96 1011.2
20260904095017 11 0.0 0.0 0.00 0.05 0.00 96 1011.2
20260904094038 11 0.0 0.0 0.00 0.05 0.00 96 1011.3
20260904093017 11 0.0 0.0 0.00 0.05 0.00 96 1011.2
20260904092017 11 0.0 0.0 0.00 0.05 0.00 96 1011.2
20260904091017 11 0.0 0.0 0.00 0.05 0.00 96 1011.4
20260904090016 11 0.0 0.0 0.00 0.05 0.00 96 1011.4
20260904085016 11 0.0 0.0 0.00 0.05 0.00 96 1011.4
20260904084017 11 0.0 0.0 0.00 0.05 0.00 96 1011.4
20260904083016 11 0.0 0.0 0.00 0.05 0.00 95 1011.2
20260904082017 11 0.0 0.0 0.00 0.05 0.00 95 1011.2
20260904081016 11 0.0 0.0 0.00 0.05 0.00 95 1011.2
20260904080017 11 0.0 0.0 0.00 0.05 0.00 95 1011.1
20260904075021 11 0.0 0.0 0.00 0.05 0.00 95 1011.1
20260904074037 11 0.0 0.0 0.00 0.05 0.00 95 1011.2
20260904073036 11 0.0 0.0 0.00 0.05 0.00 95 1011.3
20260904072016 11 0.0 0.0 0.00 0.05 0.00 95 1011.4
20260904071016 11 0.0 0.0 0.00 0.05 0.00 95 1011.3
20260904070016 12 0.0 0.0 0.00 0.05 0.05 95 1011.3
20260904065016 12 0.0 0.0 0.00 0.05 0.05 95 1011.3
20260904064016 12 0.0 0.0 0.00 0.05 0.05 95 1011.4
20260904063016 12 0.0 0.0 0.00 0.05 0.05 95 1011.5
20260904062016 12 0.0 0.0 0.00 0.05 0.05 95 1011.4
20260904061016 12 0.0 0.0 0.00 0.05 0.05 94 1011.2
20260904060016 12 0.0 0.0 0.00 0.05 0.05 94 1011.2
20260904055016 12 0.0 0.0 0.03 0.05 0.05 94 1011.1
20260904054139 12 0.0 0.0 0.05 0.05 0.05 94 1011.2
20260904053016 12 0.0 0.0 0.05 0.05 0.05 94 1011.1
20260904052017 12 0.0 0.0 0.05 0.05 0.05 94 1011.0
20260904051016 12 0.0 0.0 0.05 0.05 0.05 94 1011.0
20260904050016 13 0.0 0.0 0.05 0.05 0.05 93 1011.0
20260904045016 13 0.0 0.0 0.03 0.03 0.03 92 1011.1
20260904044036 13 0.0 0.0 0.00 0.00 0.00 91 1011.2
20260904043036 13 0.0 0.0 0.00 0.00 0.00 91 1011.2
20260904042016 13 0.0 0.0 0.00 0.00 0.00 91 1011.2
20260904041016 13 0.0 0.0 0.00 0.00 0.00 91 1011.2
20260904040016 13 0.0 0.0 0.00 0.00 0.00 91 1011.1
20260904035037 13 0.0 0.0 0.00 0.00 0.00 91 1011.1
20260904034015 13 0.0 0.0 0.00 0.00 0.00 91 1010.9
20260904033023 13 0.0 0.0 0.00 0.00 0.00 91 1010.8
20260904032018 13 0.0 0.0 0.00 0.00 0.00 91 1010.6
20260904031023 13 0.0 0.0 0.00 0.00 0.00 90 1010.6
20260904030017 13 0.0 0.0 0.00 0.00 0.00 90 1010.5
20260904025018 13 0.0 0.0 0.00 0.00 0.00 89 1010.4
20260904024025 13 0.0 0.0 0.00 0.00 0.00 88 1010.3
20260904023017 14 0.0 0.0 0.00 0.00 0.00 88 1010.4
20260904022017 14 0.0 0.0 0.00 0.00 0.00 87 1010.4
20260904021017 15 0.0 0.0 0.00 0.00 0.00 86 1010.3
20260904020101 15 0.0 0.0 0.00 0.00 0.00 85 1010.3
20260904015017 15 0.0 1.6 0.00 0.00 0.00 84 1010.3
20260904014017 15 0.0 0.0 0.00 0.00 0.00 82 1010.3
20260904013022 16 0.0 0.0 0.00 0.00 0.00 79 1010.3
20260904012019 16 0.0 0.0 0.00 0.03 0.00 76 1010.3
20260904011039 17 0.0 0.0 0.00 0.08 0.00 76 1010.3
20260904010017 17 0.0 0.0 0.00 0.08 0.00 74 1010.2
20260904005024 17 0.0 1.6 0.00 0.08 0.00 74 1010.1
20260904004017 17 0.0 1.6 0.00 0.08 0.00 73 1010.1
20260904003022 17 0.0 1.6 0.00 0.08 0.00 71 1010.2
20260904002038 17 0.0 0.0 0.00 0.08 0.00 71 1010.2
20260904001039 17 0.0 0.0 0.00 0.08 0.00 69 1010.1
20260904000045 17 0.0 0.0 0.00 0.10 0.00 69 1010.1
20260903235017 17 0.0 1.6 0.00 0.10 0.00 70 1010.1
20260903234015 17 0.0 0.0 0.00 0.10 0.00 70 1010.1
20260903233016 17 0.0 1.6 0.00 0.13 0.00 71 1010.2
20260903232015 17 0.0 0.0 0.00 0.15 0.00 71 1010.1
20260903231017 17 0.0 1.6 0.00 0.18 0.00 70 1010.1
20260903230017 16 0.0 3.2 0.00 0.20 0.00 71 1010.2